Weather History for Punta Gorda, FL

Change the Weather History Date:

Thursday, February 21, 2013

  Actual Average Record
Temperature  
Mean Temperature 70 °F -  
Max Temperature 82 °F 75 °F 87 °F (1997)
Min Temperature 57 °F 53 °F 35 °F (2009)
Cooling Degree Days 4    
Growing Degree Days 20 (Base 50)    
Moisture  
Dew Point 60 °F    
Average Humidity 87    
Maximum Humidity 100    
Minimum Humidity 50    
Precipitation  
Precipitation 0.00 in - - ()
Sea Level Pressure  
Sea Level Pressure 30.07 in    
Wind  
Wind Speed 4 mph (East)    
Max Wind Speed 12 mph    
Max Gust Speed -    
Visibility 6 miles    
Events Fog    
Averages and records for this station are not official NWS values.
T = Trace of Precipitation, MM = Missing Value Source: NWS Daily Summary

Daily Weather History Graph

Daily Weather History Graph

Search for Another Location

Airport:

Trip Planner

Search our weather history database for the weather conditions in past years. The results will help you decide how hot, cold, wet, or windy it might be!

Date:

Astronomy

Feb. 21, 2013 Rise Set
Actual Time 6:59 AM EST 6:24 PM EST
Civil Twilight 6:35 AM EST 6:47 PM EST
Nautical Twilight 6:08 AM EST 7:14 PM EST
Astronomical Twilight 5:41 AM EST 7:41 PM EST
Moon 2:51 PM EST 3:48 AM EST
Length of Visible Light 12h 12m
Length of Day
11h 25m
Waxing Gibbous, 83% of the Moon is Illuminated
Feb 21
Waxing Gibbous
Feb 25
Full
Mar 4
Last Quarter
Mar 11
New
Mar 19
First Quarter

Hourly Weather History & Observations

Time (EST) Temp. Heat Index Dew Point Humidity Pressure Visibility Wind Dir Wind Speed Gust Speed Precip Events Conditions
12:53 AM 61.0 °F - 59.0 °F 93% 30.08 in 10.0 mi Calm Calm - N/A   Clear
1:53 AM 61.0 °F - 59.0 °F 93% 30.06 in 9.0 mi East 5.8 mph - N/A   Clear
2:53 AM 60.1 °F - 59.0 °F 96% 30.05 in 6.0 mi NE 4.6 mph - N/A   Clear
3:32 AM 59.0 °F - 57.2 °F 94% 30.05 in 1.5 mi ENE 3.5 mph - N/A   Partly Cloudy
3:35 AM 59.0 °F - 57.2 °F 94% 30.05 in 0.8 mi Calm Calm - N/A   Mist
3:48 AM 57.2 °F - 55.4 °F 94% 30.05 in 0.5 mi ENE 4.6 mph - N/A Fog Fog
3:53 AM 57.9 °F - 57.0 °F 97% 30.05 in 0.8 mi NE 4.6 mph - N/A   Mist
4:19 AM 57.2 °F - 57.2 °F 100% 30.05 in 2.0 mi ENE 4.6 mph - N/A   Mostly Cloudy
4:22 AM 57.2 °F - 57.2 °F 100% 30.05 in 3.0 mi ENE 3.5 mph - N/A   Scattered Clouds
4:30 AM 57.2 °F - 57.2 °F 100% 30.05 in 3.0 mi East 3.5 mph - N/A   Partly Cloudy
4:41 AM 57.2 °F - 57.2 °F 100% 30.05 in 2.0 mi Calm Calm - N/A   Clear
4:47 AM 57.2 °F - 57.2 °F 100% 30.05 in 1.0 mi Calm Calm - N/A   Mist
4:49 AM 57.2 °F - 57.2 °F 100% 30.05 in 0.8 mi Calm Calm - N/A   Mist
4:53 AM 57.9 °F - 57.0 °F 97% 30.05 in 0.5 mi Calm Calm - N/A Fog Fog
5:36 AM 57.2 °F - 55.4 °F 94% 30.06 in 1.0 mi NNE 5.8 mph - N/A   Mist
5:41 AM 57.2 °F - 57.2 °F 100% 30.06 in 3.0 mi NE 5.8 mph - N/A   Mostly Cloudy
5:53 AM 57.0 °F - 55.9 °F 96% 30.07 in 1.8 mi NE 4.6 mph - N/A   Overcast
6:00 AM 57.2 °F - 55.4 °F 94% 30.06 in 1.0 mi NE 4.6 mph - N/A   Overcast
6:16 AM 57.2 °F - 57.2 °F 100% 30.07 in 3.0 mi ENE 4.6 mph - N/A   Overcast
6:46 AM 57.2 °F - 57.2 °F 100% 30.08 in 6.0 mi ENE 5.8 mph - N/A   Scattered Clouds
6:53 AM 57.9 °F - 57.0 °F 97% 30.09 in 6.0 mi ENE 6.9 mph - N/A   Mostly Cloudy
7:12 AM 57.2 °F - 57.2 °F 100% 30.09 in 2.0 mi ENE 5.8 mph - N/A   Overcast
7:30 AM 59.0 °F - 57.2 °F 94% 30.10 in 0.5 mi East 5.8 mph - N/A Fog Fog
7:53 AM 60.1 °F - 59.0 °F 96% 30.11 in 0.5 mi East 4.6 mph - N/A Fog Fog
8:50 AM 62.6 °F - 62.6 °F 100% 30.11 in 1.2 mi ESE 5.8 mph - N/A   Overcast
8:53 AM 63.0 °F - 62.1 °F 97% 30.11 in 1.2 mi ESE 4.6 mph - N/A   Overcast
9:13 AM 64.4 °F - 64.4 °F 100% 30.11 in 6.0 mi East 5.8 mph - N/A   Mostly Cloudy
9:24 AM 64.4 °F - 62.6 °F 94% 30.12 in 10.0 mi ENE 5.8 mph - N/A   Scattered Clouds
9:44 AM 69.8 °F - 64.4 °F 83% 30.12 in 10.0 mi Variable 4.6 mph - N/A   Mostly Cloudy
9:53 AM 71.1 °F - 64.9 °F 81% 30.13 in 10.0 mi ENE 4.6 mph - N/A   Mostly Cloudy
10:17 AM 71.6 °F - 64.4 °F 78% 30.13 in 10.0 mi ENE 4.6 mph - N/A   Overcast
10:53 AM 75.9 °F - 64.9 °F 69% 30.14 in 10.0 mi East 6.9 mph - N/A   Mostly Cloudy
11:53 AM 78.1 °F - 64.0 °F 62% 30.11 in 10.0 mi SSE 4.6 mph - N/A   Mostly Cloudy
12:53 PM 80.1 °F 81.5 °F 63.0 °F 56% 30.09 in 10.0 mi South 9.2 mph - N/A   Partly Cloudy
1:53 PM 82.9 °F 84.0 °F 63.0 °F 51% 30.05 in 10.0 mi South 6.9 mph - N/A   Partly Cloudy
2:53 PM 82.0 °F 83.1 °F 63.0 °F 52% 30.04 in 10.0 mi WSW 3.5 mph - N/A   Partly Cloudy
3:53 PM 81.0 °F 82.2 °F 63.0 °F 54% 30.04 in 10.0 mi WSW 11.5 mph - N/A   Clear
4:53 PM 80.1 °F 80.9 °F 60.1 °F 50% 30.03 in 10.0 mi WSW 11.5 mph - N/A   Scattered Clouds
5:53 PM 77.0 °F - 62.1 °F 60% 30.03 in 10.0 mi WSW 8.1 mph - N/A   Clear
6:53 PM 72.0 °F - 63.0 °F 73% 30.04 in 10.0 mi West 5.8 mph - N/A   Clear
7:53 PM 71.1 °F - 63.0 °F 75% 30.06 in 10.0 mi SW 4.6 mph - N/A   Clear
8:53 PM 68.0 °F - 63.0 °F 84% 30.06 in 10.0 mi Calm Calm - N/A   Mostly Cloudy
9:53 PM 66.0 °F - 63.0 °F 90% 30.07 in 10.0 mi Calm Calm - N/A   Mostly Cloudy
10:53 PM 66.9 °F - 63.0 °F 87% 30.08 in 10.0 mi South 3.5 mph - N/A   Partly Cloudy
11:53 PM 64.9 °F - 62.1 °F 90% 30.07 in 10.0 mi SSE 5.8 mph - N/A   Clear